Location: Oshawa
(43.9000°N, 78.8670°W)
Time: 02:47:45
(UTC-05:00)

ISS - Visible Passes

Search period start: 19 February 2018 00:00
Search period end: 01 March 2018 00:00
Orbit: 403 x 407 km, 51.6° (Epoch: 19 February)

Date Brightness Start Highest point End Pass type
(mag) Time Alt. Az. Time Alt. Az. Time Alt. Az.
25 Feb -0.6 05:52:11 10° SSE 05:53:19 11° SE 05:54:28 10° ESE visible
27 Feb -1.7 05:42:09 10° SSW 05:44:55 25° SE 05:47:40 10° E visible
28 Feb -1.1 04:51:40 12° SSE 04:52:48 14° SE 04:54:38 10° E visible
